Hourly Weather Rutkowice

Today, 18 April, Sunday

Time Temperature Precipitation Wind Pressure Humidity
00:00 +7°C° 0 mm 2 mps 749 mmHg 91%
01:00 +5°C° 0 mm 3 mps 749 mmHg 92%
02:00 +5°C° 0 mm 3 mps 749 mmHg 91%
03:00 +5°C° 0 mm 3 mps 749 mmHg 90%
04:00 +6°C° 0 mm 2 mps 749 mmHg 89%
05:00 +6°C° 0 mm 2 mps 749 mmHg 88%
06:00 +7°C° 0 mm 2 mps 749 mmHg 87%
07:00 +7°C° 0 mm 2 mps 750 mmHg 85%
08:00 +8°C° 0.1 mm 3 mps 750 mmHg 82%
09:00 +9°C° 0.1 mm 3 mps 750 mmHg 79%
10:00 +10°C° 0.1 mm 3 mps 750 mmHg 76%
11:00 +10°C° 0.2 mm 3 mps 750 mmHg 75%
12:00 +10°C° 0.2 mm 3 mps 750 mmHg 74%
13:00 +11°C° 0.2 mm 3 mps 750 mmHg 73%
14:00 +11°C° 0 mm 3 mps 750 mmHg 74%
15:00 +12°C° 0 mm 2 mps 750 mmHg 75%
16:00 +12°C° 0 mm 2 mps 750 mmHg 75%
17:00 +10°C° 0 mm 2 mps 750 mmHg 79%
18:00 +10°C° 0 mm 2 mps 750 mmHg 83%
19:00 +9°C° 0 mm 2 mps 750 mmHg 87%
20:00 +9°C° 0.1 mm 2 mps 750 mmHg 89%
21:00 +9°C° 0.1 mm 2 mps 750 mmHg 92%
22:00 +9°C° 0.1 mm 3 mps 750 mmHg 94%
23:00 +8°C° 0 mm 3 mps 750 mmHg 94%

Tomorrow, 19 April, Monday

Time Temperature Precipitation Wind Pressure Humidity
00:00 +8°C° 0 mm 2 mps 749 mmHg 94%
01:00 +8°C° 0 mm 2 mps 749 mmHg 94%
02:00 +8°C° 0 mm 2 mps 749 mmHg 93%
03:00 +8°C° 0 mm 2 mps 749 mmHg 92%
04:00 +8°C° 0 mm 2 mps 749 mmHg 91%
05:00 +8°C° 0 mm 2 mps 749 mmHg 90%
06:00 +9°C° 0 mm 3 mps 749 mmHg 88%
07:00 +9°C° 0 mm 3 mps 750 mmHg 87%
08:00 +11°C° 0 mm 4 mps 750 mmHg 77%
09:00 +12°C° 0 mm 4 mps 750 mmHg 67%
10:00 +13°C° 0 mm 5 mps 749 mmHg 58%
11:00 +14°C° 0 mm 5 mps 749 mmHg 54%
12:00 +14°C° 0 mm 5 mps 749 mmHg 50%
13:00 +15°C° 0 mm 5 mps 749 mmHg 46%
14:00 +14°C° 0 mm 4 mps 749 mmHg 48%
15:00 +14°C° 0 mm 4 mps 749 mmHg 49%
16:00 +14°C° 0 mm 4 mps 748 mmHg 51%
17:00 +12°C° 0 mm 3 mps 748 mmHg 58%
18:00 +11°C° 0 mm 3 mps 748 mmHg 65%
19:00 +9°C° 0 mm 3 mps 748 mmHg 72%
20:00 +9°C° 0 mm 3 mps 748 mmHg 74%
21:00 +8°C° 0 mm 3 mps 748 mmHg 77%
22:00 +8°C° 0 mm 3 mps 748 mmHg 79%
23:00 +7°C° 0 mm 3 mps 748 mmHg 82%

Day after tomorrow, 20 April, Tuesday

Time Temperature Precipitation Wind Pressure Humidity
00:00 +6°C° 0 mm 2 mps 748 mmHg 84%
01:00 +5°C° 0 mm 2 mps 748 mmHg 87%
02:00 +5°C° 0 mm 2 mps 748 mmHg 86%
03:00 +5°C° 0 mm 2 mps 748 mmHg 84%
04:00 +4°C° 0 mm 3 mps 748 mmHg 82%
05:00 +5°C° 0 mm 3 mps 747 mmHg 79%
06:00 +5°C° 0 mm 3 mps 747 mmHg 77%
07:00 +7°C° 0 mm 2 mps 747 mmHg 74%
08:00 +8°C° 0 mm 3 mps 747 mmHg 70%
09:00 +9°C° 0 mm 3 mps 747 mmHg 65%
10:00 +9°C° 0 mm 3 mps 747 mmHg 61%
11:00 +10°C° 0 mm 2 mps 747 mmHg 57%
12:00 +12°C° 0 mm 1 mps 747 mmHg 53%
13:00 +12°C° 0 mm 0 mps 746 mmHg 50%
14:00 +13°C° 0 mm 1 mps 746 mmHg 52%
15:00 +13°C° 0 mm 2 mps 746 mmHg 54%
16:00 +13°C° 0 mm 2 mps 746 mmHg 56%
17:00 +10°C° 0.1 mm 2 mps 746 mmHg 65%
18:00 +9°C° 0.1 mm 2 mps 746 mmHg 74%
19:00 +8°C° 0.1 mm 3 mps 746 mmHg 83%
20:00 +7°C° 0 mm 2 mps 745 mmHg 85%
21:00 +7°C° 0 mm 2 mps 745 mmHg 87%
22:00 +6°C° 0 mm 2 mps 745 mmHg 88%
23:00 +6°C° 0 mm 2 mps 745 mmHg 88%

21 April, Wednesday

Time Temperature Precipitation Wind Pressure Humidity
00:00 +7°C° 0 mm 1 mps 745 mmHg 87%
01:00 +7°C° 0 mm 1 mps 745 mmHg 86%
02:00 +7°C° 0 mm 1 mps 744 mmHg 86%
03:00 +7°C° 0 mm 1 mps 744 mmHg 85%
04:00 +7°C° 0 mm 1 mps 744 mmHg 85%
05:00 +8°C° 0 mm 1 mps 744 mmHg 82%
06:00 +8°C° 0 mm 1 mps 744 mmHg 78%
07:00 +9°C° 0 mm 1 mps 744 mmHg 74%
08:00 +9°C° 0 mm 2 mps 744 mmHg 69%
09:00 +10°C° 0 mm 2 mps 744 mmHg 63%
10:00 +11°C° 0 mm 3 mps 743 mmHg 57%
11:00 +11°C° 0.3 mm 3 mps 743 mmHg 61%
12:00 +11°C° 0.3 mm 3 mps 743 mmHg 65%
13:00 +11°C° 0.3 mm 3 mps 743 mmHg 69%
14:00 +11°C° 0.4 mm 3 mps 743 mmHg 67%
15:00 +11°C° 0.4 mm 3 mps 742 mmHg 64%
16:00 +12°C° 0.4 mm 3 mps 742 mmHg 62%
17:00 +11°C° 0.1 mm 3 mps 742 mmHg 68%
18:00 +9°C° 0.1 mm 3 mps 742 mmHg 75%
19:00 +8°C° 0.1 mm 2 mps 743 mmHg 81%
20:00 +7°C° 0 mm 2 mps 743 mmHg 83%
21:00 +7°C° 0 mm 2 mps 743 mmHg 84%
22:00 +6°C° 0 mm 2 mps 743 mmHg 86%
23:00 +5°C° 0.2 mm 3 mps 743 mmHg 87%

22 April, Thursday

Time Temperature Precipitation Wind Pressure Humidity
00:00 +4°C° 0.2 mm 3 mps 743 mmHg 88%
01:00 +4°C° 0.2 mm 3 mps 744 mmHg 90%
02:00 +3°C° 0.2 mm 3 mps 744 mmHg 90%
03:00 +3°C° 0.2 mm 3 mps 744 mmHg 90%
04:00 +2°C° 0.2 mm 3 mps 744 mmHg 90%
05:00 +2°C° 0 mm 3 mps 745 mmHg 85%
06:00 +3°C° 0 mm 4 mps 745 mmHg 80%
07:00 +2°C° 0 mm 5 mps 745 mmHg 75%
08:00 +3°C° 0 mm 5 mps 746 mmHg 67%
09:00 +5°C° 0 mm 5 mps 746 mmHg 59%
10:00 +6°C° 0 mm 5 mps 746 mmHg 51%
11:00 +6°C° 0 mm 5 mps 746 mmHg 49%
12:00 +7°C° 0 mm 5 mps 747 mmHg 48%
13:00 +7°C° 0 mm 5 mps 747 mmHg 46%
14:00 +7°C° 0.1 mm 5 mps 747 mmHg 47%
15:00 +7°C° 0.1 mm 4 mps 747 mmHg 48%
16:00 +7°C° 0.1 mm 4 mps 747 mmHg 50%
17:00 +5°C° 0.1 mm 3 mps 748 mmHg 55%
18:00 +5°C° 0.1 mm 2 mps 748 mmHg 61%
19:00 +5°C° 0.1 mm 1 mps 748 mmHg 66%
20:00 +5°C° 0 mm 1 mps 748 mmHg 69%
21:00 +4°C° 0 mm 1 mps 749 mmHg 71%
22:00 +4°C° 0 mm 1 mps 749 mmHg 73%
23:00 +3°C° 0 mm 1 mps 749 mmHg 74%

23 April, Friday

Time Temperature Precipitation Wind Pressure Humidity
00:00 +3°C° 0 mm 1 mps 749 mmHg 76%
01:00 +3°C° 0 mm 1 mps 750 mmHg 77%
02:00 +2°C° 0 mm 1 mps 750 mmHg 78%
03:00 +2°C° 0 mm 1 mps 750 mmHg 79%
04:00 +2°C° 0 mm 1 mps 750 mmHg 81%
05:00 +2°C° 0 mm 2 mps 751 mmHg 77%
06:00 +3°C° 0 mm 2 mps 751 mmHg 74%
07:00 +4°C° 0 mm 3 mps 752 mmHg 71%
08:00 +5°C° 0.2 mm 3 mps 752 mmHg 65%
09:00 +7°C° 0.2 mm 3 mps 752 mmHg 60%
10:00 +8°C° 0.2 mm 3 mps 752 mmHg 54%
11:00 +7°C° 0.3 mm 4 mps 752 mmHg 54%
12:00 +8°C° 0.3 mm 4 mps 752 mmHg 53%
13:00 +8°C° 0.3 mm 4 mps 752 mmHg 53%
14:00 +8°C° 0.4 mm 4 mps 752 mmHg 56%
15:00 +7°C° 0.4 mm 5 mps 753 mmHg 60%
16:00 +7°C° 0.4 mm 5 mps 753 mmHg 63%
17:00 +6°C° 0.1 mm 5 mps 753 mmHg 70%
18:00 +5°C° 0.1 mm 5 mps 753 mmHg 77%
19:00 +4°C° 0.1 mm 4 mps 753 mmHg 84%
20:00 +3°C° 0 mm 4 mps 753 mmHg 88%
21:00 +1°C° 0 mm 4 mps 754 mmHg 91%
22:00 +1°C° 0 mm 3 mps 754 mmHg 94%
23:00 +1°C° 0 mm 3 mps 754 mmHg 95%
Show more